www.pogodaiklimat.ru

Погода и климат >> Архив погоды >> Россия >> Ингушетия >> Назрань


ПОГОДА в Назрани

АРХИВ ПОГОДЫ в Назрани

Время (UTC), дата Ветер
(напр.,м/с)
 
Видим.   Явления Облачность Т
(С)
Тd
(С)
f
(%)
Тe
(С)
Тes
(С)
Комфортность P
(гПа)
Po
(гПа)
Тmin
(С)
Tmax
(С)
R
(мм)
R24
(мм)
S
(см)
09 11.02 В 2 20 км 10/0
[As op]
-1.0 -6.0 69 -4 -3 по сезону 1024.2 942.9
12 11.02 Ю 42 20 км 10/0
[As op]
-0.5 -1.3 94 -14 -14 очень
холодно
940.3
15 11.02 ЮВ 2 10 км 10/0
[As op]
-1.0 -4.9 75 -5 -5 по сезону 1023.3 942.0 -0.5
18 11.02 ЮВ 2 1000 м дымка 10/0
[As op]
-2.0 -2.9 94 -6 -6 по сезону 1025.1 943.4
21 11.02 Ю 2 10 км 10/0
[As op]
-3.0 -4.7 88 -7 -7 по сезону 1024.3 942.4
00 12.02 ЮВ 2 10 км 10/0
[As op]
-4.0 -6.2 85 -8 -8 по сезону 1024.2 942.0
03 12.02 Ю 2 1000 м дымка 10/0
[As op]
-2.0 -3.7 88 -6 -6 по сезону 1023.1 941.6 -4.0
06 12.02 ЮВ 2 1000 м дымка 10/0
[As op]
-0.5 -1.4 94 -4 -4 по сезону 1022.6 941.6
09 12.02 В 2 20 км 10/0
[As op]
+1.0 -2.3 79 -2 -1 по сезону 1021.9 941.3
12 12.02 В 2 10 км 10/0
[As op]
-0.5 -1.4 94 -4 -4 прохладно 1022.6 941.6
15 12.02 В 2 4000 м дымка 10/0
[As op]
-1.0 -2.3 91 -5 -5 по сезону 1021.8 940.7 +1.0
18 12.02 штиль 0 20 км 9/0
[]
0.0 -1.4 90 -1 -1 по сезону 1025.6 941.5
21 12.02 штиль 0 200 м туман ?/? -0.3 -1.8 90 -2 -2 по сезону 1022.1 941.3
00 13.02 штиль 0 200 м туман ?/? -0.5 -2.0 90 -2 -2 по сезону 1021.7 940.8
03 13.02 штиль 0 1000 м в посл. час туман 10/0
[As op]
+0.8 -2.1 81 -0 -0 тепло 1023.1 942.1 -1.0 0.0
06 13.02 З 1 200 м туман ?/? -1.6 -1.8 99 -4 -4 по сезону 1025.0 943.6 -2.5
09 13.02 СВ 1 10 км 8/0
[Ac As]
+0.8 -0.9 88 -1 +3 по сезону 1023.9 943.2
12 13.02 ЮЗ 1 10 км 8/0
[Ac As]
+1.6 -0.6 85 -0 +1 по сезону 1024.2 943.7
15 13.02 С 1 50 м туман ?/? -1.2 -1.2 100 -4 -4 по сезону 1024.3 943.6 +3.0
18 13.02 штиль 0 10 км туман 10/0
[]
-2.8 -2.9 99 -4 -4 по сезону 1024.9 943.5
21 13.02 штиль 0 50 м туман ?/? -3.0 -3.4 97 -4 -4 по сезону 1025.4 943.5
00 14.02 штиль 0 200 м туман ?/? -3.1 -3.5 97 -4 -4 по сезону 1024.4 942.6
03 14.02 штиль 0 200 м туман ?/? -5.0 -5.3 98 -6 -6 по сезону 1025.5 943.0 -6.0 0.0 6
06 14.02 штиль 0 500 м туман ?/? -1.4 -1.3 100 -3 -3 по сезону 1025.4 944.0
09 14.02 Ю 2 1000 м в посл. час туман 10/0
[As op]
+0.9 -1.1 86 -3 -1 по сезону 1024.9 943.4
12 14.02 ЮЗ 1 10 км 10/0
[Ac As]
+2.2 +1.1 92 0 +1 по сезону 1022.7 942.5
15 14.02 Ю 1 10 км 10/0
[Ac As]
+1.2 -0.2 90 -1 -1 по сезону 1023.0 942.6 +2.5 0.0
18 14.02 ЮВ 2 1000 м дымка 10/0
[As op]
+0.8 -0.3 92 -3 -3 по сезону 1023.2 942.5
21 14.02 В 1 1000 м дымка 10/0
[As op]
0.0 -1.2 92 -2 -2 по сезону 1023.0 942.5
00 15.02 В 2 1000 м дымка 10/0
[As op]
-0.5 -1.4 94 -4 -4 по сезону 1022.8 941.8
03 15.02 Ю 2 10 км 10/0
[As op]
-1.0 -2.3 91 -5 -5 по сезону 1023.3 942.0 -1.0
06 15.02 В 2 20 км 10/0
[As op]
+0.5 -2.8 79 -3 -2 по сезону 1023.9 943.0
09 15.02 Ю 2 20 км 10/0
[As op]
+1.0 -3.9 70 -2 -1 по сезону 1023.0 942.3
12 15.02 Ю 2 20 км 10/0
[As op]
+2.0 -1.4 78 -1 -1 по сезону 1021.9 941.6
15 15.02 В 2 10 км слаб. снег 10/0 600 м
[As op]
-2.0 -3.6 89 -6 -6 прохладно 1023.4 941.9 +1.0 0.0
18 15.02 В 2 4000 м слаб. снег 10/10 600 м
[Cu med, cong]
-4.0 -5.4 90 -8 -8 прохладно 1024.6 942.4
21 15.02 В 2 4000 м слаб. снег 10/10 600 м
[Cu med, cong]
-4.0 -5.1 92 -8 -8 прохладно 1022.5 940.5
00 16.02 В 2 4000 м слаб. снег 10/10 600 м
[Cu med, cong]
-5.0 -6.4 90 -9 -9 прохладно 1022.3 940.0
03 16.02 В 2 1000 м дымка {снег} 10/0
[As op]
-5.5 -6.2 95 -10 -10 прохладно 1021.7 939.3 -5.5 1
06 16.02 В 2 4000 м дымка 10/0
[As op]
-3.0 -4.3 91 -7 -7 прохладно 1021.4 939.8
09 16.02 ЮЗ 2 10 км 8/0
[Ac As]
+3.2 -0.3 78 0 +4 по сезону 1018.5 938.9
12 16.02 ЮЗ 2 20 км 10/0
[As op]
+5.8 -4.0 49 +4 +5 по сезону 1016.6 937.7
15 16.02 Ю 1 10 км 10/0
[As op]
+5.0 +1.2 76 +4 +4 тепло 1016.5 937.6 +7.0
18 16.02 С 3 10 км 10/0
[Ac As]
+0.6 -1.6 85 -4 -4 по сезону 1020.1 939.6
21 16.02 С 1 1000 м слаб. снег 10/10 300 м
[Frnb Ns]
-1.0 -1.7 95 -3 -3 по сезону 1021.5 940.5
00 17.02 С 1 1000 м слаб. снег 10/10 300 м
[Frnb Ns]
-1.2 -1.9 95 -4 -4 по сезону 1022.0 944.0
03 17.02 Ю 1 10 км {снег} 10/0
[As op]
-1.8 -3.3 89 -4 -4 по сезону 1020.7 939.5 -3.5 9 11
06 17.02 СВ 1 2000 м дымка {снег} 10/0
[As op]
-1.0 -2.9 87 -3 -2 по сезону 1021.5 940.5
09 17.02 СЗ 2 10 км {снег} 10/0
[As op]
+0.8 -0.9 88 -3 -1 по сезону 1012.4 939.0
12 17.02 штиль 0 20 км ясно +5.0 -1.9 61 +4 +9 по сезону 1015.4 936.5
15 17.02 Ю 1 20 км ясно +3.8 -3.8 58 +3 +3 тепло 1014.2 935.1 +5.5
18 17.02 штиль 0 10 км 8/0
[Ac trans]
+7.2 +4.4 82 +6 +6 тепло 1012.7 934.6
21 17.02 Ю 1 10 км 10/0
[Ac As]
+4.0 -1.4 68 +3 +3 тепло 1013.0 934.1
00 18.02 СВ 2 10 км 8/0
[Ac trans]
+2.4 +0.3 86 -1 -1 по сезону 1010.2 931.1
03 18.02 С 2 10 км 8/0
[Ac As]
+5.0 +0.9 75 +3 +3 тепло 1008.1 929.8 +2.2 2
06 18.02 СВ 2 20 км 10/0
[Ac As]
+3.4 -3.7 60 +1 +2 по сезону 1009.2 930.4

 

Местоположение метеостанции Назрань (Ингушетия, Россия): широта 43.15 долгота 44.85 высота над уровнем моря 665 м.

В архиве по умолчанию представлена погода в Назрани за последнюю неделю. Архивные данные за месяц целиком и за предыдущие месяцы, начиная с января 2011 года, Вы можете получить, выбрав интересующий диапазон дат из раскрывающегося списка и нажав кнопку "Ввод!".


*Определитесь, кто Вы:
робот инопланетянин человек

Внимание! Время в таблицах - всемирное. Для получения местного времени необходимо прибавить поправку, которая равна 3 ч.

Смотрите также архив погоды в соседних городах и на ближайших метеорологических станциях:

Погода в Владикавказе (Северная Осетия, Россия) (19 км)
Погода в Алагире (Северная Осетия, Россия) (50 км)
Погода в Моздоке (Северная Осетия, Россия) (66 км)
Погода в Наурской (Чечня, Россия) (67 км)
Погода в Грозном (Чечня, Россия) (71 км)
Погода в Шатое (Чечня, Россия) (74 км)
Погода на Рокском Перевале (Северная Осетия, Россия) (85 км)
Погода в Наре (Северная Осетия, Россия) (87 км)
Погода в Пасанаури (Грузия) (90 км)
Погода в Прохладный (Кабардино-Балкария, Россия) (93 км)

Пояснения к столбцам:

Ветер - указаны скорость ветра в м/с - средняя за 10 мин, порывы в срок и между сроками (в фигурных скобках) и направление, откуда дует ветер: С - северный, СВ - северо-восточный, В - восточный, ЮВ - юго-восточный, Ю - южный, ЮЗ - юго-западный, З - западный, СЗ - северо-западный.
Видимость - горизонтальная дальность видимости в метрах или километрах. При видимости от 1 до 10 км при отсутствии осадков обычно наблюдается дымка, при ухудшении видимости до 1 км и менее - туман. В сухую погоду видимость может ухудшаться дымом, пылью или мглою.
Явления - указаны атмосферные явления, наблюдавшиеся в срок или в последний час перед сроком; фигурными скобками обозначены явления, наблюдавшиеся между сроками (за 1-3 часа до срока); квадратными скобками обозначены град или гололедные отложения с указанием их диаметра в мм.
Облачность - указаны через наклонную черту общая и нижняя облачность в баллах и высота нижней границы облаков в метрах; квадратными скобками обозначены формы облаков: Ci - перистые, Cs - перисто-слоистые, Cc - перисто-кучевые, Ac - высококучевые, As - высокослоистые, Sc - слоисто-кучевые, Ns - слоисто-дождевые, Cu - кучевые, Cb - кучево-дождевые. Подробнее классификацию облаков см. в Атласе облаков (PDF).
T - Температура воздуха - температура, измеренная на высоте 2 м над землей.
Td - Температура точки росы - температура, при понижении до которой содержащийся в воздухе водяной пар достигнет насыщения.
f - Относительная влажность воздуха - влажноcть воздуха, измеренная на высоте 2 м над землей.
Te - Эффективная температура - температура, которую ощущает одетый по сезону человек в тени. Характеристика душности погоды. При расчете учитывается влияние влажности воздуха и скорости ветра на теплоощущения человека.
Tes - Эффективная температура на солнце - температура, которую ощущает человек, с поправкой на солнечный нагрев. Характеристика знойности погоды. Зависит от высоты солнца над горизонтом, облачности и скорости ветра. Ночью, в пасмурную погоду, а также при ветре 12 м/с и более поправка равна нулю.
P - Атмосферное давление - приведенное к уровню моря атмосферное давление.
Po - Атмосферное давление - измеренное на уровне метеостанции атмосферное давление.
Tmin - Минимальная температура - минимум температуры воздуха на высоте 2 м над землей.
Tmax - Максимальная температура - максимум температуры воздуха на высоте 2 м над землей.
R - Количество осадков - Количество выпавших осадков за период времени, мм. При наведении курсора мыши на число - период времени, за который выпало указанное количество осадков.
R24 - Количество осадков - Количество выпавших осадков за 24 часа, мм.
S - Снежный покров - Высота снежного покрова, см. При наведении курсора мыши на число - состояние снежного покрова и степень покрытия местности в баллах.